Date String (YYYY-MM-DD hh:mm:ss) UTC,Instrument flags,Ambient pressure (hPa),Sample flow (lpm),Bypass flow (lpm),Sample temperature (°C),Ambient temperature (°C),ASC tube jacket temperature (°C),LED temperature (°C),Box temperature (°C),Sample RH (%),Span deviation,Mass concentration (μg/m³),Mass concentration (μg/m³),Mass concentration (μg/m³)
DateTimeUTC,F1_M11,P_M11,Q1_M11,Q2_M11,T1_M11,T2_M11,T3_M11,T4_M11,T5_M11,U1_M11,ZSPAN_M11,X2_M11,X0_M11,X1_M11
2023-05-23 16:00:00,,0831.3,5.00,0.00,29.8,28.3,00.0,38.1,31.4,23.0,0003.4,0021.99,0032.19,0020.67
2023-05-23 16:01:00,,0831.2,5.00,0.00,29.8,28.3,00.0,38.1,31.4,23.5,0003.4,0021.93,0032.03,0020.64
2023-05-23 16:02:00,,0831.2,5.00,0.00,29.8,28.4,00.0,38.1,31.4,23.7,0003.3,0021.91,0032.35,0020.62
2023-05-23 16:03:00,,0831.2,5.01,0.00,29.8,28.4,00.0,38.1,31.4,23.2,0003.2,0021.89,0032.28,0020.60
2023-05-23 16:04:00,,0831.2,5.01,0.00,29.9,28.4,00.0,38.1,31.4,23.1,0003.1,0021.87,0032.79,0020.61
2023-05-23 16:05:00,,0831.2,5.00,0.00,29.9,28.4,00.0,38.1,31.5,23.6,0003.2,0021.88,0033.23,0020.60
2023-05-23 16:06:00,,0831.2,5.00,0.00,29.9,28.4,00.0,38.2,31.5,23.4,0003.1,0021.93,0033.54,0020.63
2023-05-23 16:07:00,,0831.2,4.99,0.00,29.9,28.4,00.0,38.2,31.5,23.7,0003.2,0022.01,0033.58,0020.72
2023-05-23 16:08:00,,0831.2,5.01,0.00,29.9,28.4,00.0,38.2,31.5,23.7,0003.3,0022.07,0033.51,0020.77
2023-05-23 16:09:00,,0831.2,5.00,0.00,29.9,28.4,00.0,38.2,31.5,23.5,0003.4,0022.06,0033.33,0020.78
2023-05-23 16:10:00,,0831.2,4.99,0.00,29.9,28.4,00.0,38.2,31.5,23.3,0003.4,0022.02,0033.07,0020.79
2023-05-23 16:11:00,,0831.2,5.00,0.00,29.9,28.5,00.0,38.2,31.5,23.2,0003.4,0021.98,0033.03,0020.75
2023-05-23 16:12:00,,0831.2,5.00,0.00,29.9,28.5,00.0,38.2,31.5,23.0,0003.5,0022.02,0033.28,0020.74
2023-05-23 16:13:00,,0831.2,5.00,0.00,29.9,28.5,00.0,38.2,31.5,23.3,0003.4,0022.08,0033.42,0020.75
2023-05-23 16:14:00,,0831.2,5.00,0.00,29.9,28.5,00.0,38.2,31.5,23.2,0003.5,0022.10,0033.43,0020.73
2023-05-23 16:15:00,,0831.3,5.01,0.00,29.9,28.5,00.0,38.2,31.5,23.5,0003.6,0022.03,0033.22,0020.69
2023-05-23 16:16:00,,0831.3,5.00,0.00,30.0,28.5,00.0,38.2,31.5,23.3,0003.6,0022.00,0033.73,0020.70
2023-05-23 16:17:00,,0831.2,5.00,0.00,30.0,28.5,00.0,38.3,31.5,23.2,0003.6,0021.94,0032.89,0020.71
2023-05-23 16:18:00,,0831.2,5.00,0.00,30.0,28.5,00.0,38.3,31.5,23.8,0003.6,0021.94,0032.80,0020.68
2023-05-23 16:19:00,,0831.2,5.00,0.00,30.0,28.5,00.0,38.3,31.6,23.0,0003.7,0021.83,0032.64,0020.60
2023-05-23 16:20:00,,0831.2,5.00,0.00,30.0,28.5,00.0,38.3,31.6,23.5,0003.8,0021.84,0033.22,0020.59
2023-05-23 16:21:00,,0831.3,5.00,0.00,30.0,28.5,00.0,38.3,31.6,22.9,0003.8,0021.78,0033.80,0020.52
2023-05-23 16:22:00,,0831.2,5.00,0.00,30.0,28.5,00.0,38.3,31.6,22.6,0003.8,0021.71,0033.84,0020.48
2023-05-23 16:23:00,,0831.2,5.00,0.00,30.0,28.5,00.0,38.3,31.6,22.2,0003.8,0021.73,0034.45,0020.50
2023-05-23 16:24:00,,0831.2,5.00,0.00,30.0,28.5,00.0,38.3,31.5,22.3,0003.7,0021.72,0034.57,0020.47
2023-05-23 16:25:00,,0831.2,5.00,0.00,30.0,28.4,00.0,38.3,31.5,22.6,0003.7,0021.71,0034.28,0020.46
2023-05-23 16:26:00,,0831.2,5.00,0.00,30.0,28.4,00.0,38.3,31.5,22.6,0003.6,0021.74,0035.07,0020.48
2023-05-23 16:27:00,,0831.2,4.99,0.00,30.0,28.0,00.0,38.3,31.6,22.7,0003.6,0021.75,0033.90,0020.47
2023-05-23 16:28:00,,0831.2,5.01,0.00,30.0,26.3,00.0,38.2,31.3,22.6,0003.6,0021.76,0034.00,0020.46
2023-05-23 16:29:00,,0831.2,5.01,0.00,29.9,25.8,00.0,38.1,31.2,23.0,0003.6,0021.76,0033.90,0020.45
2023-05-23 16:30:00,,0831.2,4.98,0.00,29.8,26.1,00.0,38.1,31.1,23.1,0003.6,0021.82,0034.39,0020.47
2023-05-23 16:31:00,,0831.2,4.99,0.00,29.7,26.3,00.0,38.1,31.1,23.1,0003.5,0021.81,0034.90,0020.48
2023-05-23 16:32:00,,0831.2,5.01,0.00,29.7,26.6,00.0,38.1,31.1,23.5,0003.5,0021.87,0035.36,0020.50
2023-05-23 16:33:00,,0831.2,5.01,0.00,29.7,26.9,00.0,38.1,31.1,22.8,0003.6,0021.93,0035.73,0020.51
2023-05-23 16:34:00,,0831.2,5.00,0.00,29.7,27.1,00.0,38.1,31.1,22.2,0003.7,0021.93,0035.23,0020.47
2023-05-23 16:35:00,,0831.2,4.99,0.00,29.7,27.3,00.0,38.1,31.2,21.8,0003.7,0021.95,0035.62,0020.50
2023-05-23 16:36:00,,0831.2,5.00,0.00,29.6,27.5,00.0,38.0,31.2,22.0,0003.7,0021.92,0035.54,0020.51
2023-05-23 16:37:00,,0831.2,5.00,0.00,29.6,27.6,00.0,38.0,31.2,22.2,0003.7,0021.91,0035.70,0020.52
2023-05-23 16:38:00,,0831.1,5.00,0.00,29.6,27.7,00.0,38.0,31.2,22.6,0003.7,0021.86,0035.85,0020.52
2023-05-23 16:39:00,,0831.2,5.01,0.00,29.6,27.8,00.0,38.0,31.2,23.1,0003.7,0021.80,0035.47,0020.51
2023-05-23 16:40:00,,0831.1,5.00,0.00,29.6,27.9,00.0,38.0,31.2,23.2,0003.7,0021.74,0035.26,0020.49
2023-05-23 16:41:00,,0831.2,4.99,0.00,29.7,28.0,00.0,38.0,31.2,22.7,0003.7,0021.69,0034.69,0020.48
2023-05-23 16:42:00,,0831.1,4.99,0.00,29.7,28.0,00.0,38.0,31.3,23.0,0003.6,0021.68,0033.73,0020.48
2023-05-23 16:43:00,,0831.2,5.00,0.00,29.7,28.0,00.0,38.0,31.3,23.7,0003.5,0021.65,0032.61,0020.47
2023-05-23 16:44:00,,0831.2,5.00,0.00,29.7,28.1,00.0,38.0,31.3,23.0,0003.5,0021.64,0032.73,0020.50
2023-05-23 16:45:00,,0831.2,5.01,0.00,29.7,28.1,00.0,38.0,31.3,23.4,0003.4,0021.60,0032.37,0020.50
2023-05-23 16:46:00,,0831.2,5.01,0.00,29.7,28.2,00.0,38.0,31.3,23.4,0003.5,0021.53,0031.93,0020.47
2023-05-23 16:47:00,,0831.2,4.99,0.00,29.7,28.2,00.0,38.0,31.3,23.1,0003.5,0021.54,0032.44,0020.49
2023-05-23 16:48:00,,0831.1,4.99,0.00,29.7,28.2,00.0,38.0,31.3,23.4,0003.5,0021.49,0031.40,0020.46
2023-05-23 16:49:00,,0831.1,4.99,0.00,29.7,28.2,00.0,38.1,31.3,23.5,0003.4,0021.52,0030.91,0020.44
2023-05-23 16:50:00,,0831.1,5.00,0.00,29.7,28.3,00.0,38.1,31.4,23.3,0003.5,0021.56,0030.98,0020.45
2023-05-23 16:51:00,,0831.1,5.00,0.00,29.8,28.3,00.0,38.1,31.4,23.0,0003.5,0021.55,0030.91,0020.43
2023-05-23 16:52:00,,0831.1,5.00,0.00,29.8,28.3,00.0,38.1,31.4,22.5,0003.5,0021.62,0031.32,0020.44
2023-05-23 16:53:00,,0831.1,5.00,0.00,29.8,28.3,00.0,38.1,31.4,22.3,0003.5,0021.62,0031.54,0020.45
2023-05-23 16:54:00,,0831.1,5.00,0.00,29.8,28.3,00.0,38.1,31.4,21.3,0003.6,0021.57,0031.43,0020.43
2023-05-23 16:55:00,,0831.1,5.00,0.00,29.8,28.3,00.0,38.1,31.4,20.8,0003.6,0021.47,0030.90,0020.34
2023-05-23 16:56:00,,0831.1,4.99,0.00,29.8,27.3,00.0,38.0,31.4,21.0,0003.6,0021.39,0030.90,0020.30
2023-05-23 16:57:00,,0831.1,5.01,0.00,29.8,26.4,00.0,38.0,31.3,20.5,0003.6,0021.40,0031.06,0020.29
2023-05-23 16:58:00,,0831.1,5.02,0.00,29.7,26.4,00.0,37.9,31.2,19.9,0003.7,0021.33,0030.68,0020.22
2023-05-23 16:59:00,,0831.1,5.00,0.00,29.7,26.6,00.0,38.0,31.1,21.6,0003.6,0021.27,0030.63,0020.17
